Wind_Speed
34 35 36 36 35 35 35 35 36 37 38 39 41 42 43 44 45 46 47 46 46 47 49 52 54 55 55 56 56 57 57 57 57 57 57 58 58 58 58 59 58 58 58 58
37 37 39 40 41 41 41 42 43 44 46 47 47 48 49 49 49 49 48 48 50 52 55 57 58 58 58 57 58 57 57 56 56 55 55 55 55 54 54 55 55 56 56 57
39 39 40 42 43 44 45 46 47 48 48 49 50 51 51 51 50 50 51 53 55 56 58 58 57 57 57 57 57 56 56 55 54 53 51 50 51 51 52 53 54 54 55 57
38 37 38 40 42 44 45 47 49 50 51 52 52 52 53 53 54 56 57 58 58 57 57 57 56 56 55 55 54 53 52 51 49 48 48 48 48 49 50 51 52 54 56 56
36 35 35 36 38 40 41 44 46 48 50 52 53 53 54 54 55 55 55 55 55 54 54 54 53 53 53 52 51 49 47 46 45 44 45 45 46 48 50 52 53 54 54 53
32 32 32 32 33 35 37 40 41 43 45 47 48 49 49 49 50 50 50 51 51 51 51 51 50 49 49 47 46 44 43 42 42 42 43 45 46 49 51 51 50 49 47 45
26 27 29 29 29 29 32 35 36 38 40 41 43 44 45 46 46 47 47 47 47 47 47 46 45 44 44 42 41 40 39 40 40 42 44 45 46 46 45 44 43 42 41 41
22 22 23 23 24 26 28 30 32 34 36 37 39 40 42 43 43 43 43 43 43 43 42 41 40 39 38 37 37 37 37 38 39 40 41 40 40 39 39 38 38 37 37 35
20 21 21 22 24 25 26 28 29 31 33 35 36 37 37 38 38 38 38 38 38 37 36 35 34 33 33 33 33 34 35 35 36 36 36 36 36 36 35 34 33 31 30 29
20 21 22 23 24 25 26 27 28 30 31 32 33 33 33 33 33 33 32 31 30 29 28 28 28 29 30 30 31 31 32 32 33 33 33 33 32 31 30 28 27 25 24 24
19 19 21 22 23 24 26 27 28 29 29 30 29 29 28 28 27 25 24 24 23 22 22 23 24 25 26 26 28 29 31 31 31 31 30 28 27 26 24 23 22 21 20 20
19 20 21 22 23 23 25 25 26 26 25 24 23 22 21 20 18 18 17 17 17 18 19 20 21 23 25 27 28 29 29 29 28 27 26 24 22 21 20 20 19 18 18 18
17 18 19 19 20 22 22 22 21 20 18 17 15 14 13 12 12 12 12 13 14 15 17 19 22 24 26 27 27 28 27 26 25 24 22 20 19 18 18 17 16 16 16 15
14 15 16 17 18 17 16 14 12 11 10 9 8 7 6 6 7 8 9 10 12 15 18 20 23 24 26 26 26 26 25 23 22 21 19 18 16 15 14 13 12 12 12 11
11 12 13 13 12 10 9 7 6 5 3 2 2 2 2 3 4 6 8 11 14 17 19 22 23 25 26 26 25 24 22 21 20 18 16 14 13 12 10 9 8 8 8 7
8 9 9 10 8 6 5 3 1 1 2 2 2 2 3 4 6 8 11 14 16 18 21 23 25 26 26 25 24 22 20 19 17 16 13 11 10 8 7 6 6 7 7 7
6 6 7 6 4 3 1 1 2 3 3 4 4 5 6 7 9 11 13 16 18 20 22 24 25 25 25 24 22 21 19 17 15 13 11 9 7 6 6 6 7 7 9 10
4 4 4 3 2 1 2 3 5 5 6 6 7 7 8 9 11 13 15 17 19 22 24 25 26 26 26 25 23 21 19 17 15 13 11 8 7 7 7 8 9 10 11 12
4 3 2 1 1 2 4 5 6 7 8 8 8 8 9 10 12 14 16 19 21 23 24 26 27 27 27 27 25 24 21 18 16 14 12 11 10 10 10 10 11 12 13 13
4 2 1 0 1 3 5 6 7 8 9 9 9 9 10 11 13 15 17 20 22 24 25 26 28 29 29 29 28 26 23 20 18 16 15 14 13 13 12 13 13 14 14 14
4 2 2 2 3 4 5 7 8 9 9 9 9 9 10 12 13 15 18 20 22 24 25 27 29 31 32 31 30 29 27 24 21 19 18 17 16 15 15 14 14 14 15 14
5 4 3 3 4 4 6 7 9 10 10 9 9 10 10 12 13 15 18 20 22 24 26 28 30 32 33 33 33 32 30 27 25 23 21 19 18 17 16 15 15 14 14 14
6 5 4 4 5 5 7 8 9 10 10 9 9 10 10 11 13 15 18 20 22 24 26 28 30 32 33 34 35 34 33 30 28 26 24 23 21 20 18 17 16 15 14 13
8 6 6 6 6 6 8 9 10 11 11 10 9 9 10 10 12 14 16 19 21 23 25 27 29 31 33 34 35 36 35 34 32 31 28 26 24 22 20 19 17 16 14 13
9 7 6 7 7 7 9 10 11 11 11 10 10 9 9 9 11 12 15 17 20 22 23 26 28 30 32 33 34 35 36 36 35 34 32 30 27 25 22 21 19 18 16 15
10 9 8 8 8 8 10 11 12 12 12 11 10 10 9 9 9 11 13 15 18 19 20 23 26 28 30 32 33 34 35 35 35 35 35 33 31 29 27 24 22 20 18 17
11 10 10 9 9 9 10 11 12 13 12 11 11 10 9 8 8 9 11 13 15 16 17 20 23 26 28 29 31 32 34 35 35 35 35 35 34 33 31 30 28 25 23 21
Wind_Direction
235 231 230 232 234 235 237 240 243 247 250 255 259 261 263 265 266 267 269 271 275 278 281 284 285 287 287 288 289 289 289 289 288 287 287 286 286 287 287 287 288 290 291 292
243 243 242 243 245 247 248 250 252 254 256 258 260 261 263 264 265 267 270 273 276 280 284 286 287 287 288 288 289 289 290 290 290 289 289 288 288 288 288 289 290 292 293 294
247 249 249 248 247 248 249 251 254 255 257 259 261 262 263 266 269 273 277 279 283 285 287 287 287 288 289 289 290 290 291 291 291 291 290 290 290 289 290 291 291 293 294 296
250 249 250 251 250 249 249 250 251 253 256 259 262 265 269 273 276 279 282 284 285 286 287 288 288 289 290 290 291 291 292 292 291 291 290 289 289 290 291 293 293 295 296 298
251 250 250 250 252 253 253 253 254 255 258 260 263 267 271 274 276 279 281 283 284 285 287 288 289 289 290 291 292 293 293 292 291 290 289 289 290 291 292 293 295 296 297 298
253 254 254 253 254 255 256 257 258 260 263 265 268 270 272 274 276 278 281 283 284 286 287 287 289 290 291 292 293 293 293 292 290 290 290 291 292 292 293 294 295 297 298 299
255 257 257 258 259 260 260 261 262 263 265 268 270 272 274 276 278 280 282 283 285 286 287 288 290 291 292 293 293 293 292 291 291 291 292 292 293 295 296 298 299 300 300 301
257 260 262 264 266 267 267 267 266 267 269 271 272 274 276 278 280 282 283 284 285 287 288 289 290 292 293 294 294 294 294 294 294 295 295 296 297 299 300 301 301 302 302 302
260 263 266 268 270 270 271 271 272 273 273 275 276 278 279 281 282 284 285 286 287 289 290 291 292 293 294 296 296 297 297 297 298 299 300 301 302 303 303 303 303 303 303 305
265 267 270 271 273 274 274 275 276 276 277 279 281 282 283 284 286 287 288 289 291 291 292 293 294 296 298 300 301 301 302 303 304 305 305 305 305 304 304 304 304 305 307 308
268 270 272 275 277 278 279 279 279 279 281 282 284 285 286 287 288 289 291 293 294 295 297 299 301 304 305 307 308 309 309 308 308 308 307 306 305 306 306 306 307 308 309 311
272 276 279 281 281 282 282 282 281 282 283 284 285 286 286 287 288 290 294 297 301 304 307 310 312 313 314 315 314 313 312 311 310 310 309 308 308 309 310 310 310 310 312 314
277 282 285 287 288 289 289 286 284 282 282 283 282 284 285 286 289 295 302 309 315 318 320 323 323 323 323 322 321 319 318 317 315 314 313 312 311 311 312 312 311 312 315 318
283 288 291 293 295 295 293 291 285 279 277 278 278 281 287 296 306 315 323 331 334 335 335 335 333 332 331 330 329 326 325 323 321 319 318 316 314 313 315 316 317 319 324 328
291 297 301 303 303 298 296 296 287 274 263 263 273 305 323 336 345 352 355 354 351 349 346 344 343 342 341 339 337 335 333 331 328 325 324 322 321 321 323 327 331 338 344 352
297 307 313 314 309 303 299 294 260 163 145 122 80 63 50 39 30 22 14 7 2 359 357 355 353 352 350 349 346 343 341 337 333 332 333 333 333 338 346 355 3 10 23 42
294 310 322 328 322 306 287 192 144 131 116 103 97 83 69 55 41 30 21 14 11 8 6 4 2 1 360 358 356 353 349 346 345 346 349 353 2 9 18 29 35 46 57 68
283 308 326 343 17 87 134 133 125 122 115 109 99 84 69 57 45 34 26 22 20 17 14 12 11 10 9 8 6 5 3 3 5 9 15 26 35 42 51 56 62 69 73 81
265 291 315 343 66 125 128 128 125 122 118 112 98 84 72 59 47 38 33 30 27 24 22 20 20 19 18 17 17 17 18 20 23 29 39 48 57 65 68 73 76 77 82 88
245 262 274 173 131 134 131 126 125 127 122 112 98 87 75 62 51 44 40 37 34 31 29 28 28 27 27 26 26 27 29 33 38 45 53 59 66 70 76 80 82 84 87 91
209 204 179 155 145 143 141 136 135 134 126 115 103 93 80 67 57 51 46 43 40 37 35 34 34 34 34 34 34 35 37 41 47 53 58 62 67 73 78 82 85 87 88 90
190 179 172 162 151 149 149 145 143 140 132 121 110 99 86 73 63 56 52 48 45 42 40 40 40 39 39 39 39 40 42 46 51 56 60 63 68 73 78 81 83 86 87 87
185 183 182 172 162 155 153 150 149 145 138 128 119 108 94 82 71 62 57 53 49 46 45 45 44 44 44 44 44 46 48 51 54 58 61 64 67 71 75 78 81 84 86 85
188 186 182 178 170 163 160 157 154 151 145 137 129 118 104 90 78 68 61 57 53 50 49 48 48 48 48 48 48 49 51 54 57 59 61 63 65 68 71 73 75 77 80 81
189 186 183 180 176 170 166 163 160 156 151 145 138 129 116 99 86 75 67 62 58 54 52 51 52 52 51 51 51 52 53 55 57 59 60 62 64 65 68 69 70 71 73 74
191 188 185 181 176 172 168 166 164 162 158 154 148 141 130 113 97 83 73 67 63 58 54 54 54 55 54 53 53 54 55 56 57 58 59 61 62 64 65 66 68 68 68 69
192 189 185 182 178 174 171 169 168 168 166 163 159 152 143 127 110 93 80 73 67 61 57 57 56 56 55 55 55 55 56 57 58 58 59 60 61 63 64 65 66 67 68 69
Height
5757 5760 5761 5762 5762 5762 5764 5764 5766 5768 5769 5770 5770 5770 5769 5769 5768 5766 5765 5763 5761 5759 5756 5754 5751 5747 5744 5740 5737 5733 5729 5724 5720 5715 5710 5705 5700 5695 5691 5686 5680 5675 5670 5665
5749 5752 5754 5754 5755 5755 5756 5757 5759 5761 5762 5762 5762 5761 5760 5758 5757 5756 5754 5752 5750 5747 5744 5741 5738 5735 5731 5727 5722 5718 5714 5709 5704 5700 5695 5690 5685 5680 5676 5671 5666 5661 5655 5650
5740 5742 5743 5744 5745 5747 5748 5750 5751 5752 5753 5752 5752 5751 5749 5747 5746 5744 5742 5740 5738 5735 5731 5728 5724 5721 5717 5712 5708 5703 5699 5694 5689 5684 5680 5675 5671 5666 5661 5657 5652 5647 5642 5636
5730 5733 5733 5734 5734 5736 5738 5739 5741 5742 5742 5742 5741 5740 5739 5737 5735 5733 5731 5728 5725 5722 5718 5715 5711 5707 5703 5698 5694 5689 5684 5680 5675 5670 5666 5662 5657 5652 5648 5643 5639 5633 5628 5623
5721 5722 5723 5724 5725 5726 5728 5728 5730 5730 5731 5730 5730 5729 5728 5726 5724 5722 5719 5716 5712 5709 5706 5702 5698 5694 5689 5685 5680 5676 5671 5667 5662 5658 5653 5649 5645 5640 5636 5631 5626 5621 5615 5610
5711 5713 5715 5718 5717 5717 5719 5718 5720 5719 5719 5719 5718 5718 5718 5715 5713 5710 5707 5704 5701 5698 5694 5690 5686 5681 5677 5672 5668 5663 5659 5655 5650 5646 5642 5637 5633 5628 5623 5618 5613 5608 5602 5597
5704 5705 5707 5709 5709 5709 5711 5711 5711 5710 5710 5709 5708 5707 5706 5704 5701 5699 5696 5693 5690 5686 5682 5678 5674 5670 5665 5661 5656 5652 5648 5644 5639 5635 5631 5626 5621 5616 5611 5606 5601 5596 5591 5586
5698 5699 5702 5701 5701 5702 5702 5702 5701 5701 5700 5699 5698 5697 5695 5693 5691 5688 5685 5682 5679 5675 5671 5667 5664 5659 5655 5651 5646 5642 5638 5633 5629 5624 5620 5615 5610 5605 5600 5595 5591 5585 5580 5576
5693 5695 5694 5694 5694 5694 5693 5693 5692 5692 5691 5690 5688 5687 5685 5683 5681 5678 5675 5672 5668 5665 5661 5658 5654 5650 5646 5642 5637 5633 5628 5624 5619 5614 5610 5605 5600 5595 5590 5586 5581 5576 5572 5568
5687 5687 5687 5687 5687 5686 5685 5685 5684 5683 5682 5680 5679 5677 5675 5673 5670 5668 5665 5662 5659 5657 5653 5650 5646 5643 5638 5634 5629 5624 5620 5615 5610 5605 5600 5596 5591 5586 5582 5578 5574 5570 5566 5562
5680 5681 5681 5681 5680 5679 5678 5677 5675 5674 5673 5672 5670 5668 5666 5664 5662 5660 5658 5656 5653 5650 5647 5644 5640 5636 5632 5627 5622 5617 5612 5607 5602 5597 5592 5588 5583 5579 5575 5572 5568 5565 5561 5558
5675 5675 5675 5675 5673 5672 5670 5669 5667 5666 5665 5664 5662 5661 5659 5658 5656 5655 5653 5651 5649 5646 5643 5639 5635 5631 5626 5621 5616 5610 5605 5599 5594 5590 5585 5581 5577 5573 5570 5567 5563 5560 5557 5554
5670 5670 5669 5668 5666 5664 5663 5661 5660 5659 5659 5658 5657 5656 5655 5654 5653 5652 5650 5648 5646 5643 5639 5635 5631 5626 5620 5615 5609 5603 5597 5592 5587 5583 5579 5575 5572 5569 5566 5562 5560 5557 5554 5551
5666 5665 5664 5662 5660 5659 5657 5655 5655 5654 5655 5654 5654 5654 5653 5653 5652 5650 5649 5647 5644 5641 5636 5632 5627 5621 5615 5609 5603 5597 5591 5586 5581 5577 5573 5570 5567 5564 5562 5559 5557 5554 5551 5548
5662 5661 5660 5658 5656 5655 5653 5653 5652 5652 5653 5653 5653 5653 5653 5652 5651 5650 5648 5646 5642 5638 5634 5629 5623 5617 5611 5604 5598 5592 5586 5581 5577 5573 5569 5566 5564 5561 5559 5557 5555 5552 5550 5548
5659 5659 5657 5656 5654 5653 5652 5652 5652 5652 5653 5653 5654 5653 5653 5652 5651 5650 5648 5645 5641 5637 5632 5626 5620 5614 5607 5600 5594 5588 5583 5578 5574 5570 5567 5564 5561 5559 5557 5556 5554 5552 5550 5548
5658 5657 5656 5654 5653 5653 5652 5652 5653 5653 5654 5654 5654 5654 5654 5653 5652 5650 5648 5644 5641 5636 5631 5625 5619 5612 5606 5599 5593 5587 5581 5576 5572 5568 5565 5562 5560 5559 5557 5556 5554 5553 5551 5550
5657 5656 5656 5655 5654 5653 5653 5653 5654 5654 5655 5655 5656 5656 5655 5654 5653 5651 5648 5645 5641 5636 5631 5625 5619 5612 5606 5599 5592 5586 5580 5575 5571 5567 5564 5562 5560 5559 5558 5557 5556 5555 5554 5553
5655 5655 5655 5655 5654 5654 5654 5654 5655 5655 5656 5657 5657 5657 5657 5656 5655 5652 5649 5646 5642 5637 5632 5627 5620 5613 5606 5599 5593 5586 5581 5576 5572 5568 5566 5564 5562 5561 5560 5559 5559 5558 5557 5557
5654 5655 5655 5655 5655 5655 5655 5656 5656 5657 5658 5659 5659 5659 5659 5658 5656 5654 5651 5648 5644 5640 5635 5629 5623 5616 5609 5602 5595 5589 5583 5578 5574 5571 5569 5567 5565 5564 5563 5563 5562 5562 5562 5562
5653 5654 5654 5655 5656 5656 5656 5657 5658 5659 5660 5660 5661 5661 5661 5660 5659 5657 5654 5651 5648 5643 5638 5633 5627 5620 5613 5606 5600 5593 5587 5582 5579 5575 5573 5571 5570 5569 5568 5567 5567 5567 5567 5567
5653 5653 5654 5655 5656 5657 5657 5658 5659 5660 5661 5662 5663 5663 5663 5663 5662 5660 5657 5655 5651 5648 5643 5637 5631 5625 5618 5612 5606 5599 5593 5588 5584 5581 5579 5577 5575 5574 5573 5572 5572 5572 5572 5571
5652 5653 5654 5655 5656 5657 5658 5659 5660 5662 5663 5664 5665 5666 5666 5666 5665 5663 5661 5659 5656 5652 5648 5643 5637 5631 5625 5619 5613 5607 5601 5596 5592 5588 5586 5583 5582 5580 5579 5578 5577 5577 5576 5576
5651 5652 5654 5655 5657 5658 5659 5660 5661 5663 5664 5666 5667 5668 5668 5668 5668 5666 5665 5663 5660 5657 5653 5649 5644 5638 5633 5628 5622 5616 5610 5605 5601 5597 5594 5591 5589 5587 5585 5584 5583 5582 5581 5581
5650 5651 5653 5655 5656 5658 5659 5661 5662 5664 5666 5667 5669 5670 5671 5671 5670 5670 5668 5667 5664 5662 5659 5655 5651 5646 5641 5636 5631 5626 5621 5616 5611 5607 5603 5600 5597 5594 5592 5591 5589 5588 5586 5585
5648 5650 5652 5654 5656 5658 5659 5661 5663 5665 5667 5668 5670 5672 5673 5673 5673 5673 5672 5670 5669 5667 5665 5662 5658 5653 5649 5645 5641 5636 5631 5626 5622 5617 5613 5609 5606 5602 5600 5597 5595 5593 5592 5590
5647 5650 5652 5654 5656 5658 5659 5661 5663 5665 5667 5669 5671 5673 5674 5675 5675 5675 5675 5674 5673 5672 5670 5667 5664 5660 5657 5653 5649 5645 5641 5636 5632 5628 5623 5619 5615 5612 5609 5606 5603 5600 5598 5596